Regional Weather Roundup
Issued by NWS State College, PA

Home | Current Version | Previous Version | Text Only | Print | Product List | Glossary On
Versions: 1 2 3 4 5 6 7 8 9 10 11 12 13 14 15 16 17 18 19 20 21 22 23 24 25 26 27 28 29 30 31 32 33 34 35 36 37 38 39 40 41 42 43 44 45 46 47 48 49 50
000
ASUS41 KCTP 130810
RWRCTP

REGIONAL WEATHER ROUNDUP
NATIONAL WEATHER SERVICE STATE COLLEGE PA
300 AM EST WED DEC 13 2017

Note: "fair" indicates few or no clouds below 12,000 feet with no
significant weather and/or obstructions to visibility.

* = STATION THAT DOES NOT REPORT PRECIPITATION /E.G. RAIN...SNOW...ETC/
    THUNDER OR FOG.

PAZ002>004-007>009-013>016-020>023-029>032-130900-
WESTERN PENNSYLVANIA

CITY           SKY/WX    TMP DP  RH WIND       PRES   REMARKS
ERIE           LGT SNOW  20  12  71 W18G29    29.73R WCI   5
MEADVILLE      FLURRIES  14   8  77 W12G21    29.71R WCI   0
FRANKLIN*      FLURRIES  12   6  77 W10       29.69R WCI  -1
NEW CASTLE     CLOUDY    15   8  73 W13G21    29.79R WCI   1
BEAVER COUNTY  NOT AVBL
BUTLER*        FLURRIES  12   7  79 W15G22    29.76R WCI  -4
PITTSBURGH INT CLEAR     15   7  70 W12G18    29.79R WCI   2
PITTSBURGH     PTCLDY    13   4  67 W14       29.78R WCI  -2
INDIANA*       CLOUDY    14   9  79 W14G26    29.75R HAZE    WCI  -1
LATROBE        MOCLDY    14   5  67 W14G23    29.79R WCI  -1
WASHINGTON CO* CLOUDY    15   4  61 W15G21    29.85R WCI   0
$$

PAZ004>006-010>012-017>019-024>028-033>037-041-042-045-046-049>053-130900-
CENTRAL PENNSYLVANIA

CITY           SKY/WX    TMP DP  RH WIND       PRES   REMARKS
BRADFORD       LGT SNOW  12   8  84 W9        29.53R VSB 3/4 WCI   0
DUBOIS         CLOUDY    10   3  73 W22G31    29.60R WCI -10
CLEARFIELD     PTCLDY    12   4  70 SW13G24   29.62R WCI  -3
JOHNSTOWN      LGT SNOW  10   4  76 W18G31    29.62R WCI  -8
ALTOONA        CLOUDY    16   5  62 W17G30    29.66R WCI   0
STATE COLLEGE  PTCLDY    14   4  64 W20G28    29.63S WCI  -3
WILLIAMSPORT   PTCLDY    18   6  59 W16G25    29.60S WCI   3
SELINSGROVE    PTCLDY    18   4  54 W8        29.65R WCI   8
FT INDIANTOWN  CLEAR     18   1  47 W13G18    29.64S WCI   5
CAPITAL CITY   CLEAR     21  -1  38 W14G25    29.68R WCI   8
HARRISBURG     PTCLDY    21   6  52 W14       29.67S WCI   8
YORK           CLEAR     19   4  51 W16G24    29.68R WCI   4
$$

PAZ038>040-043-044-047-048-054-055-060>062-067>071-130900-
EASTERN PENNSYLVANIA

CITY           SKY/WX    TMP DP  RH WIND       PRES   REMARKS
SCRANTON       MOCLDY    17   4  56 W14       29.53S WCI   3
MOUNT POCONO   CLOUDY    11   2  67 W17G29    29.42S WCI  -6
ALLENTOWN      CLOUDY    20   4  50 W16G29    29.61R WCI   6
QUAKERTOWN*    CLOUDY    18   5  57 W9        29.61S WCI   6
READING        PTCLDY    19   5  54 W16       29.64R WCI   4
LANCASTER      CLEAR     19   4  51 W20G26    29.66R WCI   3
COATESVILLE    SUNNY     18   3  53 W16G28    29.63F WCI   3
POTTSTOWN      PTCLDY    17   2  51 W12G23    29.64S WCI   4
BLUE BELL      PTCLDY    19   3  49 W8        29.64S WCI   9
DOYLESTOWN     MOCLDY    18   3  52 W10G21    29.61R WCI   6
WILLOW GROVE   NOT AVBL
NORTH PHILA    CLEAR     22   3  44 W17       29.65R WCI   8
PHILADELPHIA   PTCLDY    22   0  38 W17G25    29.66S WCI   8
$$




USA.gov is the U.S. government's official web portal to all federal, state and local government web resources and services.